QPF
0.00 0.01 0.01 0.00 0.00 0.00 0.00 0.00 0.00 0.00 0.01 0.01 0.00 0.00 0.00 0.00 0.00 0.00 0.00 0.00 0.00 0.00 0.00 0.00 0.00 0.00 0.00 0.00 0.00 0.00 0.00 0.00 0.00
0.01 0.01 0.00 0.00 0.00 0.00 0.00 0.00 0.00 0.00 0.00 0.00 0.00 0.00 0.00 0.00 0.00 0.00 0.00 0.00 0.00 0.00 0.00 0.00 0.00 0.00 0.00 0.00 0.00 0.00 0.00 0.00 0.00
0.03 0.01 0.00 0.00 0.00 0.00 0.00 0.00 0.00 0.00 0.00 0.00 0.01 0.00 0.00 0.00 0.00 0.00 0.00 0.00 0.00 0.00 0.00 0.00 0.00 0.00 0.00 0.00 0.00 0.00 0.00 0.00 0.00
0.02 0.01 0.00 0.00 0.00 0.00 0.00 0.00 0.00 0.00 0.00 0.00 0.00 0.00 0.00 0.00 0.00 0.00 0.00 0.00 0.00 0.00 0.00 0.00 0.00 0.00 0.00 0.00 0.00 0.00 0.00 0.00 0.00
0.01 0.00 0.00 0.00 0.00 0.00 0.00 0.00 0.00 0.00 0.00 0.01 0.00 0.00 0.00 0.00 0.00 0.00 0.00 0.00 0.00 0.00 0.00 0.00 0.00 0.00 0.00 0.00 0.00 0.00 0.00 0.00 0.00
0.00 0.00 0.00 0.00 0.00 0.00 0.00 0.00 0.00 0.00 0.00 0.00 0.00 0.00 0.00 0.00 0.00 0.00 0.00 0.00 0.00 0.00 0.00 0.00 0.00 0.00 0.00 0.00 0.00 0.00 0.00 0.00 0.00
0.00 0.00 0.00 0.00 0.00 0.00 0.00 0.00 0.00 0.00 0.00 0.00 0.00 0.00 0.00 0.00 0.00 0.00 0.00 0.00 0.00 0.00 0.00 0.00 0.00 0.00 0.00 0.00 0.00 0.00 0.00 0.00 0.00
0.02 0.02 0.00 0.00 0.00 0.00 0.00 0.00 0.00 0.00 0.00 0.00 0.00 0.00 0.00 0.00 0.00 0.00 0.00 0.00 0.00 0.00 0.00 0.00 0.00 0.00 0.00 0.00 0.00 0.00 0.00 0.00 0.00
0.05 0.08 0.05 0.00 0.00 0.00 0.00 0.00 0.00 0.00 0.00 0.00 0.00 0.00 0.00 0.00 0.00 0.00 0.00 0.00 0.00 0.00 0.00 0.00 0.00 0.00 0.00 0.00 0.00 0.00 0.00 0.00 0.00
0.03 0.04 0.07 0.04 0.04 0.02 0.01 0.00 0.00 0.00 0.00 0.00 0.00 0.00 0.00 0.00 0.00 0.00 0.00 0.00 0.00 0.00 0.00 0.00 0.00 0.00 0.00 0.00 0.00 0.00 0.00 0.00 0.00
0.02 0.03 0.04 0.07 0.08 0.07 0.08 0.03 0.00 0.00 0.00 0.00 0.00 0.00 0.00 0.00 0.00 0.00 0.00 0.00 0.00 0.00 0.00 0.00 0.00 0.01 0.03 0.01 0.00 0.01 0.02 0.00 0.00
0.00 0.00 0.00 0.00 0.02 0.10 0.15 0.15 0.08 0.01 0.00 0.00 0.00 0.00 0.00 0.00 0.00 0.00 0.00 0.00 0.00 0.00 0.00 0.00 0.00 0.00 0.01 0.01 0.00 0.02 0.02 0.00 0.00
0.00 0.00 0.00 0.00 0.00 0.02 0.05 0.09 0.09 0.04 0.01 0.00 0.00 0.00 0.00 0.00 0.00 0.00 0.00 0.00 0.00 0.00 0.00 0.00 0.00 0.00 0.00 0.00 0.00 0.03 0.02 0.00 0.00
0.00 0.00 0.00 0.00 0.00 0.00 0.00 0.01 0.01 0.02 0.01 0.01 0.01 0.00 0.00 0.00 0.00 0.00 0.00 0.00 0.00 0.00 0.00 0.00 0.00 0.00 0.00 0.00 0.00 0.01 0.02 0.00 0.00
0.00 0.00 0.00 0.00 0.00 0.00 0.00 0.00 0.02 0.04 0.02 0.03 0.02 0.01 0.00 0.00 0.00 0.00 0.00 0.00 0.00 0.00 0.00 0.00 0.00 0.00 0.00 0.00 0.00 0.00 0.00 0.01 0.01
0.00 0.00 0.00 0.00 0.00 0.00 0.00 0.00 0.01 0.01 0.01 0.04 0.02 0.01 0.01 0.00 0.00 0.00 0.00 0.00 0.00 0.00 0.00 0.00 0.00 0.00 0.00 0.00 0.00 0.00 0.01 0.02 0.02
0.00 0.00 0.00 0.00 0.00 0.00 0.00 0.00 0.01 0.01 0.01 0.02 0.02 0.02 0.01 0.00 0.00 0.00 0.00 0.00 0.00 0.00 0.00 0.00 0.00 0.00 0.00 0.00 0.00 0.00 0.00 0.00 0.01
0.00 0.00 0.00 0.00 0.00 0.00 0.00 0.00 0.00 0.00 0.01 0.01 0.02 0.01 0.01 0.00 0.00 0.00 0.00 0.00 0.00 0.00 0.00 0.00 0.00 0.00 0.00 0.00 0.00 0.00 0.00 0.00 0.00
0.00 0.00 0.00 0.00 0.00 0.00 0.00 0.00 0.00 0.02 0.01 0.02 0.01 0.01 0.01 0.01 0.00 0.00 0.00 0.00 0.00 0.00 0.00 0.00 0.00 0.00 0.00 0.00 0.00 0.00 0.04 0.03 0.00
0.00 0.00 0.00 0.00 0.00 0.00 0.00 0.01 0.01 0.02 0.02 0.02 0.02 0.01 0.02 0.02 0.02 0.00 0.00 0.00 0.00 0.00 0.00 0.00 0.00 0.00 0.01 0.01 0.02 0.05 0.10 0.04 0.04
MSLP
1015.81 1015.98 1016.18 1016.37 1016.49 1016.63 1016.79 1016.99 1017.23 1017.43 1017.59 1017.63 1017.92 1018.19 1018.12 1018.09 1018.03 1017.81 1017.98 1018.24 1018.42 1018.47 1018.52 1018.58 1018.64 1018.62 1018.65 1018.66 1018.69 1018.75 1018.69 1018.60 1018.55
1015.81 1015.99 1016.24 1016.42 1016.64 1016.80 1016.96 1017.12 1017.29 1017.47 1017.72 1017.81 1017.96 1018.18 1018.18 1018.13 1018.06 1017.85 1018.26 1018.45 1018.58 1018.66 1018.75 1018.82 1018.84 1018.85 1018.84 1018.86 1018.84 1018.85 1018.88 1018.85 1018.82
1015.82 1016.04 1016.29 1016.48 1016.62 1016.80 1017.03 1017.22 1017.38 1017.59 1017.73 1017.81 1017.99 1018.26 1018.26 1018.04 1017.96 1017.87 1018.29 1018.45 1018.68 1018.79 1018.91 1018.98 1019.01 1019.02 1019.06 1019.08 1019.05 1019.04 1019.02 1019.02 1019.02
1015.71 1015.93 1016.19 1016.40 1016.57 1016.73 1016.95 1017.23 1017.48 1017.64 1017.76 1017.83 1018.01 1018.16 1018.25 1018.23 1018.20 1017.69 1018.16 1018.33 1018.59 1018.83 1018.98 1019.10 1019.16 1019.19 1019.19 1019.20 1019.19 1019.18 1019.21 1019.20 1019.15
1015.58 1015.76 1016.00 1016.25 1016.50 1016.70 1016.89 1017.12 1017.37 1017.56 1017.71 1017.80 1018.07 1018.16 1018.11 1018.06 1017.99 1017.68 1018.08 1018.30 1018.48 1018.73 1018.94 1019.06 1019.18 1019.27 1019.37 1019.35 1019.31 1019.32 1019.31 1019.30 1019.26
1015.34 1015.53 1015.72 1016.02 1016.32 1016.53 1016.76 1017.05 1017.38 1017.54 1017.64 1017.73 1017.94 1018.06 1018.12 1017.84 1017.75 1017.57 1017.82 1018.05 1018.35 1018.66 1018.88 1019.00 1019.09 1019.19 1019.29 1019.34 1019.34 1019.33 1019.33 1019.32 1019.28
1014.82 1015.11 1015.46 1015.82 1016.14 1016.45 1016.65 1016.85 1017.10 1017.39 1017.54 1017.62 1017.65 1017.82 1017.78 1017.63 1017.47 1017.49 1017.68 1017.80 1018.01 1018.33 1018.67 1018.89 1019.02 1019.08 1019.14 1019.20 1019.19 1019.18 1019.23 1019.23 1019.22
1014.46 1014.86 1015.14 1015.62 1015.92 1016.27 1016.53 1016.80 1017.04 1017.14 1017.25 1017.27 1017.39 1017.42 1017.36 1017.14 1016.94 1017.16 1017.38 1017.57 1017.82 1017.89 1018.07 1018.32 1018.57 1018.74 1018.84 1018.94 1019.02 1018.98 1018.98 1019.02 1019.05
1014.20 1014.80 1015.08 1015.29 1015.54 1015.88 1016.08 1016.38 1016.62 1016.86 1016.78 1016.67 1016.79 1016.75 1016.83 1016.83 1016.67 1016.90 1017.04 1017.23 1017.49 1017.73 1017.75 1017.91 1018.09 1018.27 1018.40 1018.52 1018.60 1018.66 1018.69 1018.75 1018.84
1013.98 1014.43 1014.79 1015.00 1015.17 1015.41 1015.51 1015.74 1015.98 1016.26 1016.40 1016.36 1016.24 1016.23 1016.31 1016.33 1016.50 1016.68 1016.77 1017.02 1017.22 1017.46 1017.61 1017.65 1017.73 1017.87 1017.94 1018.02 1018.09 1018.14 1018.22 1018.30 1018.43
1013.65 1014.17 1014.52 1014.74 1014.92 1015.05 1015.23 1015.31 1015.41 1015.50 1015.65 1015.88 1015.71 1015.74 1015.87 1016.05 1016.06 1016.25 1016.62 1016.63 1016.84 1017.04 1017.23 1017.31 1017.36 1017.37 1017.42 1017.49 1017.61 1017.62 1017.65 1017.78 1017.84
1013.17 1013.73 1014.15 1014.25 1014.45 1014.71 1015.03 1015.13 1015.19 1015.08 1015.13 1015.34 1015.44 1015.37 1015.46 1015.66 1015.80 1015.82 1016.00 1016.23 1016.42 1016.52 1016.66 1016.75 1016.94 1017.04 1017.07 1016.98 1017.02 1017.03 1017.16 1017.29 1017.42
1012.94 1013.39 1013.68 1013.77 1013.95 1014.23 1014.64 1014.95 1015.14 1015.21 1015.14 1015.22 1015.17 1015.06 1014.89 1014.88 1015.02 1015.16 1015.30 1015.53 1015.74 1016.09 1016.14 1016.22 1016.27 1016.33 1016.54 1016.59 1016.51 1016.55 1016.70 1016.80 1016.96
1012.72 1013.15 1013.36 1013.43 1013.62 1013.99 1014.23 1014.55 1014.83 1014.98 1015.04 1015.09 1015.06 1015.00 1014.78 1014.70 1014.62 1014.65 1014.57 1014.71 1014.95 1015.16 1015.45 1015.66 1015.82 1015.93 1016.06 1016.07 1015.93 1015.84 1016.12 1016.34 1016.53
1012.43 1012.74 1012.98 1013.02 1013.60 1013.84 1014.03 1014.16 1014.38 1014.66 1014.91 1014.94 1014.84 1014.77 1014.65 1014.37 1014.24 1014.04 1013.83 1014.01 1014.06 1014.12 1014.30 1014.82 1015.20 1015.42 1015.45 1015.58 1015.58 1015.49 1015.45 1015.63 1015.92
1012.05 1012.43 1012.63 1012.93 1013.19 1013.39 1013.64 1013.93 1014.19 1014.23 1014.42 1014.84 1014.65 1014.48 1014.39 1014.34 1014.25 1014.20 1013.68 1013.48 1013.46 1013.53 1013.55 1013.64 1014.11 1014.06 1014.40 1014.62 1014.85 1014.87 1014.77 1014.90 1015.11
1011.78 1012.15 1012.41 1012.69 1012.98 1013.13 1013.32 1013.58 1013.86 1013.93 1013.98 1014.23 1014.55 1014.10 1013.78 1013.59 1013.52 1013.66 1013.48 1013.30 1013.11 1013.10 1012.93 1012.92 1012.91 1012.91 1013.19 1013.49 1013.95 1014.20 1014.24 1014.27 1014.34
1011.62 1011.92 1012.29 1012.46 1012.71 1012.98 1012.98 1012.98 1013.36 1013.43 1013.41 1013.50 1013.78 1013.64 1013.28 1012.91 1012.51 1012.52 1012.30 1012.25 1012.39 1012.36 1012.16 1012.17 1012.25 1012.18 1012.20 1012.30 1012.59 1012.87 1013.23 1013.40 1013.67
1011.47 1011.81 1012.09 1012.31 1012.38 1012.55 1012.58 1012.65 1012.67 1012.85 1012.78 1012.91 1012.86 1012.62 1012.58 1012.58 1012.27 1011.88 1011.41 1011.45 1011.45 1011.39 1011.58 1011.50 1011.37 1011.48 1011.63 1011.72 1011.99 1012.26 1012.69 1013.06 1013.12
1011.65 1011.88 1012.12 1012.27 1012.20 1012.08 1012.04 1011.94 1011.93 1011.88 1011.93 1011.97 1012.01 1012.04 1012.06 1012.11 1012.19 1011.65 1011.25 1011.04 1010.66 1010.67 1010.73 1010.93 1010.66 1010.65 1010.98 1011.18 1011.47 1011.76 1012.31 1012.66 1012.78
Thickness
5732 5732 5731 5730 5730 5728 5727 5725 5724 5722 5721 5721 5718 5716 5716 5716 5717 5718 5717 5716 5714 5714 5714 5713 5713 5713 5713 5712 5710 5709 5709 5708 5708
5727 5727 5727 5727 5726 5725 5724 5722 5721 5720 5718 5717 5716 5715 5715 5715 5716 5716 5714 5712 5711 5710 5710 5709 5709 5708 5709 5708 5708 5707 5705 5705 5705
5723 5723 5722 5722 5723 5722 5721 5719 5718 5716 5715 5714 5713 5712 5713 5714 5714 5714 5712 5709 5707 5707 5706 5705 5705 5705 5704 5704 5703 5703 5702 5701 5701
5720 5719 5718 5717 5718 5719 5718 5716 5715 5713 5712 5711 5710 5709 5709 5711 5711 5713 5710 5708 5705 5704 5703 5701 5700 5700 5700 5700 5699 5699 5697 5697 5697
5716 5716 5714 5713 5713 5713 5713 5713 5712 5711 5709 5708 5707 5706 5707 5709 5709 5710 5708 5705 5704 5702 5700 5699 5697 5696 5695 5695 5695 5694 5693 5693 5693
5714 5713 5712 5710 5708 5708 5708 5708 5706 5706 5706 5706 5705 5704 5704 5706 5707 5708 5705 5703 5701 5699 5696 5695 5694 5692 5691 5690 5690 5689 5688 5688 5688
5712 5711 5708 5706 5704 5703 5702 5702 5702 5701 5701 5702 5702 5702 5702 5704 5705 5705 5702 5701 5699 5696 5694 5692 5691 5689 5687 5686 5686 5686 5684 5684 5683
5709 5708 5706 5702 5700 5699 5697 5696 5696 5697 5697 5698 5699 5700 5701 5702 5704 5702 5700 5698 5695 5694 5693 5691 5689 5687 5686 5684 5683 5682 5682 5680 5679
5704 5701 5701 5699 5697 5696 5695 5694 5692 5691 5692 5696 5696 5696 5698 5700 5701 5700 5697 5695 5693 5691 5690 5688 5687 5685 5684 5682 5681 5680 5679 5677 5675
5699 5697 5696 5695 5695 5694 5693 5692 5691 5689 5689 5690 5693 5694 5694 5694 5695 5695 5694 5692 5690 5687 5685 5684 5683 5682 5682 5680 5679 5678 5677 5675 5673
5693 5693 5691 5690 5690 5690 5690 5690 5689 5689 5687 5686 5688 5689 5689 5688 5689 5688 5688 5688 5687 5685 5682 5681 5680 5679 5678 5678 5676 5676 5676 5674 5672
5687 5687 5686 5686 5685 5686 5685 5685 5684 5685 5684 5684 5682 5683 5683 5683 5683 5683 5683 5683 5682 5681 5680 5679 5677 5676 5675 5675 5674 5674 5672 5671 5668
5676 5679 5678 5680 5681 5681 5681 5680 5678 5677 5677 5677 5678 5679 5680 5680 5679 5679 5679 5680 5680 5677 5677 5675 5674 5673 5672 5671 5671 5669 5668 5666 5665
5665 5667 5670 5672 5674 5674 5675 5674 5673 5671 5672 5671 5672 5672 5674 5674 5675 5675 5678 5676 5676 5678 5675 5672 5671 5670 5668 5667 5668 5667 5665 5662 5659
5655 5658 5661 5663 5664 5664 5665 5667 5668 5666 5665 5665 5665 5667 5670 5671 5671 5674 5675 5674 5675 5677 5676 5672 5668 5666 5665 5663 5662 5662 5662 5660 5657
5647 5650 5653 5653 5654 5658 5659 5657 5658 5660 5658 5655 5658 5661 5662 5663 5664 5665 5668 5671 5672 5672 5672 5672 5668 5666 5663 5662 5659 5657 5659 5656 5654
5638 5640 5643 5645 5645 5648 5649 5650 5649 5650 5651 5649 5645 5649 5656 5661 5662 5659 5661 5662 5663 5664 5667 5667 5667 5667 5665 5662 5658 5653 5651 5649 5650
5629 5631 5634 5636 5637 5638 5641 5643 5641 5641 5645 5646 5640 5638 5644 5652 5661 5660 5661 5662 5660 5659 5661 5662 5662 5663 5662 5663 5658 5655 5650 5647 5644
5620 5623 5625 5627 5630 5631 5633 5635 5637 5636 5639 5638 5640 5642 5643 5640 5642 5654 5661 5659 5657 5658 5654 5655 5657 5656 5655 5654 5652 5648 5643 5640 5638
5611 5613 5615 5616 5620 5624 5626 5629 5631 5633 5634 5635 5635 5636 5637 5637 5632 5636 5642 5646 5653 5652 5649 5647 5649 5650 5648 5644 5642 5640 5636 5629 5629